When you browse on this site, cookies collect data to enhance your experience and personalize the content and advertising you see.
Visit our Privacy Policy to learn more. By continuing to use the site, you agree to this use of cookies and data.
  • In Austria
  • List of Countries
  • For 7 days
  • Water Temperature
  • Satellite Maps
  • Weather Map
  • News
  • Weather Widgets
  • user-avatar
    Login

    Hourly Weather Albany

    Today, 21 May, Tuesday

    Time Temperature Precipitation Wind Pressure Humidity
    00:00 +12°C° 0 mm 4 mps 760 mmHg 83%
    01:00 +12°C° 0 mm 5 mps 760 mmHg 84%
    02:00 +10°C° 0 mm 5 mps 760 mmHg 84%
    03:00 +10°C° 0 mm 5 mps 760 mmHg 83%
    04:00 +10°C° 0 mm 5 mps 760 mmHg 82%
    05:00 +10°C° 0 mm 5 mps 760 mmHg 81%
    06:00 +10°C° 0 mm 5 mps 761 mmHg 80%
    07:00 +12°C° 0 mm 5 mps 761 mmHg 79%
    08:00 +11°C° 0 mm 6 mps 761 mmHg 76%
    09:00 +14°C° 0 mm 6 mps 761 mmHg 70%
    10:00 +16°C° 0 mm 6 mps 761 mmHg 65%
    11:00 +19°C° 0 mm 6 mps 761 mmHg 59%
    12:00 +19°C° 0.1 mm 5 mps 761 mmHg 60%
    13:00 +19°C° 0.1 mm 5 mps 761 mmHg 60%
    14:00 +20°C° 0 mm 4 mps 761 mmHg 58%
    15:00 +19°C° 0.1 mm 4 mps 761 mmHg 63%
    16:00 +18°C° 0.1 mm 3 mps 761 mmHg 68%
    17:00 +17°C° 0.1 mm 3 mps 762 mmHg 72%
    18:00 +16°C° 0 mm 2 mps 762 mmHg 75%
    19:00 +15°C° 0 mm 2 mps 762 mmHg 78%
    20:00 +15°C° 0 mm 2 mps 762 mmHg 82%
    21:00 +14°C° 0 mm 2 mps 763 mmHg 83%
    22:00 +13°C° 0 mm 3 mps 763 mmHg 84%
    23:00 +12°C° 0 mm 3 mps 763 mmHg 85%

    Tomorrow, 22 May, Wednesday

    Time Temperature Precipitation Wind Pressure Humidity
    00:00 +12°C° 0 mm 3 mps 763 mmHg 85%
    01:00 +12°C° 0 mm 3 mps 763 mmHg 85%
    02:00 +12°C° 0 mm 4 mps 762 mmHg 85%
    03:00 +12°C° 0 mm 4 mps 762 mmHg 86%
    04:00 +12°C° 0 mm 4 mps 762 mmHg 86%
    05:00 +11°C° 0 mm 4 mps 762 mmHg 86%
    06:00 +12°C° 0 mm 4 mps 762 mmHg 85%
    07:00 +12°C° 0 mm 4 mps 762 mmHg 84%
    08:00 +12°C° 0 mm 5 mps 763 mmHg 82%
    09:00 +14°C° 0 mm 5 mps 763 mmHg 74%
    10:00 +16°C° 0 mm 5 mps 763 mmHg 66%
    11:00 +19°C° 0 mm 5 mps 762 mmHg 58%
    12:00 +20°C° 0 mm 4 mps 762 mmHg 54%
    13:00 +20°C° 0 mm 4 mps 761 mmHg 51%
    14:00 +21°C° 0 mm 3 mps 761 mmHg 47%
    15:00 +20°C° 0 mm 3 mps 761 mmHg 52%
    16:00 +19°C° 0 mm 2 mps 761 mmHg 57%
    17:00 +17°C° 0 mm 2 mps 761 mmHg 62%
    18:00 +17°C° 0 mm 2 mps 761 mmHg 65%
    19:00 +16°C° 0 mm 2 mps 761 mmHg 68%
    20:00 +16°C° 0 mm 2 mps 761 mmHg 72%
    21:00 +14°C° 0 mm 3 mps 761 mmHg 73%
    22:00 +14°C° 0 mm 3 mps 761 mmHg 75%
    23:00 +14°C° 0 mm 4 mps 761 mmHg 77%

    Day after tomorrow, 23 May, Thursday

    Time Temperature Precipitation Wind Pressure Humidity
    00:00 +13°C° 0 mm 4 mps 761 mmHg 79%
    01:00 +13°C° 0 mm 4 mps 761 mmHg 80%
    02:00 +13°C° 0 mm 4 mps 761 mmHg 81%
    03:00 +13°C° 0 mm 4 mps 761 mmHg 83%
    04:00 +13°C° 0 mm 4 mps 761 mmHg 85%
    05:00 +13°C° 0 mm 4 mps 761 mmHg 86%
    06:00 +13°C° 0 mm 4 mps 761 mmHg 86%
    07:00 +13°C° 0 mm 4 mps 762 mmHg 85%
    08:00 +14°C° 0 mm 4 mps 762 mmHg 84%
    09:00 +15°C° 0 mm 4 mps 762 mmHg 78%
    10:00 +17°C° 0 mm 5 mps 762 mmHg 71%
    11:00 +19°C° 0 mm 5 mps 762 mmHg 65%
    12:00 +19°C° 0.2 mm 5 mps 762 mmHg 64%
    13:00 +20°C° 0.2 mm 6 mps 761 mmHg 62%
    14:00 +20°C° 0.2 mm 6 mps 761 mmHg 61%
    15:00 +19°C° 0.2 mm 6 mps 761 mmHg 66%
    16:00 +17°C° 0.2 mm 5 mps 761 mmHg 71%
    17:00 +16°C° 0.2 mm 5 mps 761 mmHg 76%
    18:00 +16°C° 0.1 mm 5 mps 762 mmHg 79%
    19:00 +15°C° 0.1 mm 5 mps 762 mmHg 82%
    20:00 +14°C° 0.1 mm 5 mps 763 mmHg 85%
    21:00 +14°C° 0.2 mm 5 mps 763 mmHg 87%
    22:00 +14°C° 0.2 mm 5 mps 763 mmHg 88%
    23:00 +14°C° 0.2 mm 4 mps 763 mmHg 89%

    24 May, Friday

    Time Temperature Precipitation Wind Pressure Humidity
    00:00 +14°C° 0.2 mm 4 mps 763 mmHg 90%
    01:00 +14°C° 0.2 mm 4 mps 763 mmHg 90%
    02:00 +14°C° 0.2 mm 4 mps 762 mmHg 90%
    03:00 +13°C° 0.1 mm 4 mps 762 mmHg 91%
    04:00 +13°C° 0.1 mm 4 mps 762 mmHg 92%
    05:00 +13°C° 0.1 mm 4 mps 762 mmHg 93%
    06:00 +13°C° 0.1 mm 4 mps 762 mmHg 93%
    07:00 +13°C° 0.1 mm 4 mps 763 mmHg 92%
    08:00 +13°C° 0.1 mm 5 mps 763 mmHg 92%
    09:00 +14°C° 0.2 mm 5 mps 763 mmHg 89%
    10:00 +15°C° 0.2 mm 5 mps 763 mmHg 85%
    11:00 +16°C° 0.2 mm 5 mps 763 mmHg 82%
    12:00 +16°C° 0.2 mm 5 mps 763 mmHg 79%
    13:00 +16°C° 0.2 mm 6 mps 762 mmHg 77%
    14:00 +16°C° 0.2 mm 6 mps 762 mmHg 74%
    15:00 +16°C° 0.1 mm 6 mps 762 mmHg 76%
    16:00 +15°C° 0.1 mm 5 mps 762 mmHg 77%
    17:00 +15°C° 0.1 mm 5 mps 763 mmHg 78%
    18:00 +15°C° 0.2 mm 5 mps 763 mmHg 79%
    19:00 +14°C° 0.2 mm 5 mps 763 mmHg 79%
    20:00 +14°C° 0.2 mm 5 mps 763 mmHg 80%
    21:00 +14°C° 0.1 mm 4 mps 764 mmHg 80%
    22:00 +13°C° 0.1 mm 4 mps 764 mmHg 81%
    23:00 +13°C° 0.1 mm 4 mps 764 mmHg 81%

    25 May, Saturday

    Time Temperature Precipitation Wind Pressure Humidity
    00:00 +12°C° 0 mm 4 mps 764 mmHg 82%
    01:00 +12°C° 0 mm 3 mps 764 mmHg 84%
    02:00 +12°C° 0 mm 3 mps 764 mmHg 86%
    03:00 +12°C° 0.1 mm 3 mps 764 mmHg 85%
    04:00 +12°C° 0.1 mm 3 mps 764 mmHg 85%
    05:00 +12°C° 0.1 mm 3 mps 764 mmHg 84%
    06:00 +12°C° 0.1 mm 3 mps 764 mmHg 84%
    07:00 +13°C° 0.1 mm 3 mps 765 mmHg 84%
    08:00 +13°C° 0.1 mm 3 mps 765 mmHg 83%
    09:00 +14°C° 0.1 mm 3 mps 765 mmHg 79%
    10:00 +16°C° 0.1 mm 3 mps 765 mmHg 74%
    11:00 +17°C° 0.1 mm 3 mps 766 mmHg 69%
    12:00 +17°C° 0.1 mm 3 mps 765 mmHg 67%
    13:00 +17°C° 0.1 mm 3 mps 765 mmHg 64%
    14:00 +17°C° 0.1 mm 3 mps 765 mmHg 62%
    15:00 +16°C° 0 mm 3 mps 765 mmHg 65%
    16:00 +15°C° 0 mm 2 mps 765 mmHg 68%
    17:00 +14°C° 0 mm 2 mps 765 mmHg 71%
    18:00 +14°C° 0 mm 1 mps 766 mmHg 74%
    19:00 +13°C° 0 mm 1 mps 766 mmHg 78%
    20:00 +12°C° 0 mm 1 mps 766 mmHg 82%
    21:00 +12°C° 0.1 mm 1 mps 766 mmHg 83%
    22:00 +12°C° 0.1 mm 1 mps 767 mmHg 84%
    23:00 +12°C° 0.1 mm 1 mps 767 mmHg 85%

    26 May, Sunday

    Time Temperature Precipitation Wind Pressure Humidity
    00:00 +12°C° 0.1 mm 1 mps 767 mmHg 84%
    01:00 +13°C° 0.1 mm 1 mps 766 mmHg 83%
    02:00 +13°C° 0.1 mm 1 mps 766 mmHg 83%
    03:00 +13°C° 0.1 mm 1 mps 766 mmHg 84%
    04:00 +12°C° 0.1 mm 1 mps 766 mmHg 85%
    05:00 +12°C° 0.1 mm 1 mps 766 mmHg 86%
    06:00 +12°C° 0.1 mm 1 mps 767 mmHg 86%
    07:00 +13°C° 0.1 mm 1 mps 767 mmHg 86%
    08:00 +13°C° 0.1 mm 1 mps 767 mmHg 85%
    09:00 +14°C° 0 mm 1 mps 767 mmHg 78%
    10:00 +16°C° 0 mm 1 mps 767 mmHg 70%
    11:00 +18°C° 0 mm 1 mps 767 mmHg 62%
    12:00 +17°C° 0 mm 2 mps 767 mmHg 61%
    13:00 +17°C° 0 mm 2 mps 766 mmHg 59%
    14:00 +17°C° 0 mm 3 mps 766 mmHg 57%
    15:00 +16°C° 0 mm 2 mps 766 mmHg 61%
    16:00 +15°C° 0 mm 2 mps 766 mmHg 66%
    17:00 +14°C° 0 mm 2 mps 766 mmHg 70%
    18:00 +14°C° 0 mm 2 mps 767 mmHg 73%
    19:00 +13°C° 0 mm 2 mps 767 mmHg 76%
    20:00 +12°C° 0 mm 1 mps 767 mmHg 79%
    21:00 +12°C° 0 mm 1 mps 767 mmHg 80%
    22:00 +12°C° 0 mm 1 mps 767 mmHg 82%
    23:00 +11°C° 0 mm 1 mps 767 mmHg 83%
    Show more